Regional Weather Roundup
Issued by NWS

Home | Current Version | Previous Version | Text Only | Print | Product List | Glossary Off
Versions: 1 2 3 4 5 6 7 8 9 10 11 12 13 14 15 16 17 18 19 20 21 22 23 24 25 26 27 28 29 30 31 32 33 34 35 36 37 38 39 40 41 42 43 44 45 46 47 48 49 50

000
ASUS43 KFSD 260402
RWRSD

WEATHER ROUNDUP FOR SOUTH DAKOTA
NATIONAL WEATHER SERVICE SIOUX FALLS SD
1100 PM CDT WED APR 25 2018

NOTE: "FAIR" INDICATES FEW OR NO CLOUDS BELOW 12,000 FEET WITH NO
SIGNIFICANT WEATHER AND/OR OBSTRUCTIONS TO VISIBILITY.


SDZ001>005-009-010-012>017-260500-
NORTHWEST AND NORTH CENTRAL SOUTH DAKOTA

CITY           SKY/WX    TMP DP  RH WIND       PRES   REMARKS
BUFFALO          N/A     56  30  37 NW22G30   29.89R
FAITH            N/A     53  37  54 NW12      29.91R
MOBRIDGE       CLOUDY    50  34  54 S8        29.81S
$$

SDZ012>016-024>037-041>051-057-063-072>074-260500-
SOUTHWEST AND SOUTH CENTRAL SOUTH DAKOTA

CITY           SKY/WX    TMP DP  RH WIND       PRES   REMARKS
RAPID CTY ARPT MOCLDY    53  33  46 N17       29.94R
PIERRE         CLOUDY    52  32  46 SE9       29.85F
CUSTER         CLOUDY    51  19  28 N12G32    30.00R
ELLSWORTH AFB  MOCLDY    55  33  42 NW17      29.95R
PHILIP         CLOUDY    48  35  60 N5        29.85R
PINE RIDGE     CLOUDY    59  27  29 S13       29.87S
SPEARFISH      FAIR      54  32  43 W7        30.03R
WINNER         FAIR      55  27  34 S20       29.89F
$$

SDZ004>011-016>023-039-040-260500-
NORTHEAST SOUTH DAKOTA

CITY           SKY/WX    TMP DP  RH WIND       PRES   REMARKS
ABERDEEN       MOCLDY    47  37  68 S12       29.87F
WATERTOWN      CLOUDY    43  35  73 S10       29.90F
BROOKINGS      CLOUDY    47  35  63 S10       29.94F
SISSETON         N/A     49  36  61 SE12      29.87F
$$

SDZ017-020-022-023-036>040-048>070-260500-
SOUTHEAST SOUTH DAKOTA

CITY           SKY/WX    TMP DP  RH WIND       PRES   REMARKS
SIOUX FALLS    CLOUDY    50  30  46 S5        29.96F
HURON          CLOUDY    49  36  61 S13       29.90F
CHAMBERLAIN    CLOUDY    47  34  60 SE8       29.90S
MITCHELL       CLOUDY    49  38  65 S12       29.94F
YANKTON        CLOUDY    52  32  46 S8        29.97F
$$

ABBREVIATIONS USED IN REMARKS
   TC - TEMPERATURE IN CELSIUS
  WCI - WIND CHILL INDEX
   HX - HEAT INDEX
  VSB - VISIBILITY




USA.gov is the U.S. government's official web portal to all federal, state and local government web resources and services.